Tracking 31027 objects as of 19-Jul-2025
HD Live streaming from Space Station
objects crossing your sky now

ONEWEB-0117

Track ONEWEB-0117 now!
10-day predictions
ONEWEB-0117 is classified as:


NORAD ID: 47263
Int'l Code: 2020-100F
Perigee: 1,219.5 km
Apogee: 1,222.2 km
Inclination: 87.9 °
Period: 109.7 minutes
Semi major axis: 7591 km
RCS: Unknown
Launch date: December 18, 2020
Source: United Kingdom (UK)
Launch site: VOSTOCHNY COSMODROME (VOSTO)
Your satellite tracking list
STARLINK-6351
Track 1 satellite(s)




NASA's NSSDC Master Catalog

Two Line Element Set (TLE):
1 47263U 20100F   25199.30358376  .00000098  00000-0  23610-3 0  9998
2 47263  87.8856  57.0331 0001794  83.4094 276.7239 13.12440848220739
Source of the keplerian elements: AFSPC